Flag for France Weather past 2 weeks in Lille, France

Now
84 °F

Passing clouds.


Feels Like: 85 °F
Forecast: 67 / 80 °F
Wind: 13 mph from Northeast

Location: Lille Airport

Current Time: Jul 23, 2014 at 5:37:37 PM

Latest Report: Jul 23, 2014 at 5:00 PM


Visibility: N/A

Pressure: 29.98 "Hg

Humidity: 48%

Dew point: 63 °F

Location of LilleLocation

Historic Weather in Lille — Graph

°F

Lille temperature yesterday

Maximum temperature yesterday: 75 °F (at 3:00 PM)
Minimum temperature yesterday: 63 °F (at 4:00 AM)
Average temperature yesterday: 68 °F

Past Weeks' High & Low Weather Summary

 TemperatureHumidityPressure
High91 °F (Jul 18, 2:30 PM)100% (Jul 9, 6:00 AM)30.18 "Hg (Jul 9, 6:00 AM)
Low55 °F (Jul 9, 6:00 AM)36% (Jul 18, 4:00 PM)29.74 "Hg (Jul 13, 5:30 PM)
Average67 °F80%29.97 "Hg
* Reported Jul 8 4:30 PM — Jul 23 4:30 PM, Lille, Weather by CustomWeather, © 2014

Note: Actual official high and low records may vary slightly from our data, if they occured in-between our weather recording intervals... More about our weather records

Advertising

Lille weather history for previous 24 hours

 ConditionsComfort  
Time TempWeatherWind HumidityBarometerVisibility
4:30 PM
Jul 23
84 °FPassing clouds.10 mph48%29.98 "HgN/A
4:00 PM84 °FSunny.12 mph48%30.01 "Hg10 mi
3:30 PM84 °FPassing clouds.13 mph48%30.01 "HgN/A
3:00 PM82 °FScattered clouds.14 mph55%30.01 "HgN/A
1:07 PM81 °FScattered clouds.13 mph58%30.04 "HgN/A
12:00 PM79 °FPassing clouds.10 mph65%30.04 "HgN/A
11:30 AM79 °FPassing clouds.13 mph65%30.04 "HgN/A
11:00 AM77 °FSunny.9 mph65%30.04 "Hg10 mi
10:00 AM73 °FPassing clouds.7 mph74%30.07 "HgN/A
8:00 AM66 °FClear.8 mph88%30.07 "Hg4 mi
7:30 AM66 °FClear.8 mph88%30.07 "Hg4 mi
7:00 AM64 °FClear.8 mph94%30.07 "Hg4 mi
6:00 AM64 °FFog.6 mph94%30.07 "Hg2 mi
5:00 AM64 °FFog.6 mph94%30.07 "Hg2 mi
4:30 AM64 °FFog.6 mph94%30.07 "Hg2 mi
4:00 AM64 °FFog.5 mph100%30.09 "Hg2 mi
3:30 AM63 °FFog.2 mph94%30.09 "Hg2 mi
3:00 AM61 °FFog.3 mph100%30.09 "Hg2 mi
2:30 AM61 °FFog.6 mph100%30.09 "Hg2 mi
2:00 AM63 °FFog.5 mph100%30.09 "Hg2 mi
1:00 AM63 °FFog.6 mph100%30.09 "Hg2 mi
7:00 PM
Jul 22
73 °FScattered clouds.13 mph74%30.09 "HgN/A
6:30 PM73 °FPartly sunny.14 mph74%30.09 "HgN/A
6:00 PM73 °FPartly sunny.15 mph74%30.09 "HgN/A
5:30 PM75 °FScattered clouds.15 mph74%30.09 "HgN/A
5:00 PM75 °FScattered clouds.12 mph74%30.09 "HgN/A
Weather by CustomWeather, © 2014

See weather overviewHow to use our weather pages